This demonstration page uses our WeatherBlox Daily Observations layout. Learn more.

Left ArrowRight Arrow

36.17497, -115.13722

Hourly Observations for March 9, 2015

Temp ( °F °C ) Dew Point ( °F °C ) Humidity (%) Winds ( mph kmh ) Pressure ( in mb ) Visibility ( mi km ) Precip ( " mm )
12:53 am 00:53 Clear 62 16.7 23 -5 22 22 NE 8 13 29.96 1015 10 16 0.00 0.00
1:53 am 01:53 Clear 61 16.1 22 -5.6 22 22 NE 9 15 29.96 1015 10 16 0.00 0.00
2:53 am 02:53 Clear 59 15 23 -5 25 25 NNE 5 7 29.97 1015 10 16 0.00 0.00
3:53 am 03:53 Clear 57 13.9 22 -5.6 26 26 NNW 8 13 29.97 1015 10 16 0.00 0.00
4:53 am 04:53 Clear 58 14.4 20 -6.7 23 23 NW 15 24 29.97 1015 10 16 0.00 0.00
5:53 am 05:53 Clear 58 14.4 18 -7.8 21 21 N 7 11 29.99 1016 10 16 0.00 0.00
6:53 am 06:53 Clear 57 13.9 18 -7.8 22 22 N 10 17 30.01 1016 10 16 0.00 0.00
7:53 am 07:53 Sunny 58 14.4 18 -7.8 21 21 N 6 9 30.03 1017 10 16 0.00 0.00
8:53 am 08:53 Sunny 62 16.7 18 -7.8 18 18 N 13 20 30.04 1017 10 16 0.00 0.00
9:53 am 09:53 Sunny 67 19.4 16 -8.9 14 14 N 10 17 30.05 1018 10 16 0.00 0.00
10:53 am 10:53 Sunny 71 21.7 16 -8.9 12 12 N 9 15 30.05 1018 10 16 0.00 0.00
11:53 am 11:53 Sunny 72 22 16 -9 12 12 E 5 7 29.94 1014 10 16 0.00 0.00
12:53 pm 12:53 Sunny 72 22.2 15 -9.4 11 11 SSW 5 7 30.01 1016 10 16 0.00 0.00
1:53 pm 13:53 Sunny 75 23.9 12 -11.1 9 9 undefined N/A 29.97 1015 10 16 0.00 0.00
2:53 pm 14:53 Sunny 74 23.3 12 -11.1 9 9 Calm 29.96 1014 10 16 0.00 0.00
3:53 pm 15:53 Sunny 75 23.9 11 -11.7 8 8 VRB 6 9 29.94 1014 10 16 0.00 0.00
4:53 pm 16:53 Sunny 75 23.9 11 -11.7 8 8 ESE 6 9 29.93 1014 10 16 0.00 0.00
5:53 pm 17:53 Sunny 74 23.3 11 -11.7 9 9 E 10 17 29.93 1013 10 16 0.00 0.00
6:53 pm 18:53 Clear 71 21.7 13 -10.6 10 10 ESE 7 11 29.93 1014 10 16 0.00 0.00
7:53 pm 19:53 Clear 69 20.6 15 -9.4 12 12 Calm 29.96 1015 10 16 0.00 0.00
8:53 pm 20:53 Clear 66 18.9 19 -7.2 16 16 WNW 6 9 29.98 1015 10 16 0.00 0.00
9:53 pm 21:53 Clear 63 17.2 20 -6.7 19 19 NNW 7 11 29.99 1016 10 16 0.00 0.00
10:53 pm 22:53 Clear 59 15 22 -5.6 24 24 NW 5 7 29.99 1016 10 16 0.00 0.00
11:53 pm 23:53 Clear 57 13.9 20 -6.7 24 24 Calm 30.00 1016 10 16 0.00 0.00

Powered by AerisWeather